This is the latest recevied weather packets stored in our database for station/object SY1EBE-13. If no packets are shown the sender has not sent any weather packets the latest 10 day(s).
| Time | Temp. | Humidity | Pressure | Rain* | Wind** | Luminosity | Snow |
|---|---|---|---|---|---|---|---|
| 1788596225 | 28.89° C | 42% | 1016.3 hPa | - | - | - | - |
| 1788594709 | 28.89° C | 50% | 1016.2 hPa | - | - | - | - |
| 1788593176 | 28.89° C | 51% | 1016.1 hPa | - | - | - | - |
| 1788591673 | 28.89° C | 48% | 1015.7 hPa | - | - | - | - |
| 1788590152 | 28.89° C | 48% | 1015.7 hPa | - | - | - | - |
| 1788588632 | 28.89° C | 49% | 1015.8 hPa | - | - | - | - |
| 1788587114 | 28.33° C | 49% | 1015.7 hPa | - | - | - | - |
| 1788585594 | 28.33° C | 47% | 1015.6 hPa | - | - | - | - |
| 1788581855 | 28.89° C | 57% | 1015.3 hPa | - | - | - | - |
| 1788580332 | 28.89° C | 57% | 1014.9 hPa | - | - | - | - |
| 1788578811 | 28.89° C | 57% | 1014.9 hPa | - | - | - | - |
| 1788577295 | 28.89° C | 57% | 1014.8 hPa | - | - | - | - |
| 1788575773 | 28.89° C | 57% | 1014.7 hPa | - | - | - | - |
| 1788574257 | 28.89° C | 57% | 1014.8 hPa | - | - | - | - |
| 1788572733 | 28.89° C | 57% | 1014.8 hPa | - | - | - | - |
| 1788571213 | 29.44° C | 57% | 1014.8 hPa | - | - | - | - |
| 1788569689 | 29.44° C | 57% | 1014.7 hPa | - | - | - | - |
| 1788568168 | 29.44° C | 57% | 1014.5 hPa | - | - | - | - |
| 1788566643 | 29.44° C | 56% | 1014.2 hPa | - | - | - | - |
| 1788565136 | 29.44° C | 56% | 1014.2 hPa | - | - | - | - |
| 1788563606 | 29.44° C | 56% | 1014.3 hPa | - | - | - | - |
| 1788562088 | 29.44° C | 56% | 1014.3 hPa | - | - | - | - |
| 1788560568 | 29.44° C | 56% | 1014.3 hPa | - | - | - | - |
| 1788559050 | 29.44° C | 57% | 1014.5 hPa | - | - | - | - |
| 1788557529 | 29.44° C | 56% | 1014.6 hPa | - | - | - | - |
* Rain since midnight (hover to see other rain measurements)
** Current wind speed in m/s (hover to see current wind gust speed)